Weather in Podvyaznovskiy

Russia / Ivanovo Oblast     56°58′10″N   41°07′18″E
В апреле 2022 года жителям России запретили посещать сайт meteo.paraplan.net по решению Генеральной прокуратуры. Аудитория сайта уменьшилась в 10 раз. Владельцы сайта не видят смысла в поддержке погодного сервера в таких условиях. Сайт будет закрыт в октябре.
temp.,
°C
wind,
m/s
gust,
m/s
humid.,
%
clouds,
%
prec.,
mm/h
press.,
hPa
HPBL,
m
25 september, sun
sun2500:00+8se41092100 0.1 1001806
03:00+8se51088100 0.7 10021060
06:00+8ese51094100 0.4 1002557
09:00+9ese588882 0.4 1003749
12:00+10ese5877100 0.2 1004949
15:00+12se477077 0.4 1004867
18:00+9ssw118240 0.5 100510
21:00+8n2286100 0.6 100542
26 september, mon
mon2600:00+8n2385100 0.0 100462
03:00+8nnw2392100 0.0 100464
06:00+8nw3793100 0.2 1004286
09:00+8wnw3794100 0.9 1004399
12:00+8wnw4991100 1.2 10051325
15:00+8wnw4895100 5.4 1006531
18:00+8wnw3696100 3.1 1007383
21:00+7ne2396100 4.2 1008219
27 september, tue
tue2700:00+7ene1295100 0.5 1009108
03:00+7e2497100 0.8 1010228
06:00+8s4895100 0.5 1010455
09:00+8s3689100 0.6 1013512
12:00+10se357899 0.3 1014673
15:00+10ese467776 0.8 1014693
18:00+9ese3888100 0.4 1015298
21:00+7e399178 0.7 1015257
28 september, wed
wed2800:00+7e499555 0.0 1015302
03:00+6e41098100 0.0 1015326
06:00+7e61192100 0.0 1014522
09:00+7e71589100 0.0 1013718
12:00+7e81691100 1.8 1012897
15:00+7e81693100 5.8 1010923
18:00+6e81694100 3.1 1010835
21:00+7e71695100 6.7 1009745
29 september, thu
thu2900:00+7e71695100 1.8 1008672
03:00+6e71595100 3.6 1008731
06:00+6e71395100 1.1 1008665
09:00+6e61295100 1.4 1009508
12:00+6e51096100 0.3 1011460
15:00+7e4997100 0.6 1013389
18:00+6e3797100 0.6 1016310
21:00+6e3698100 0.7 1018273